SCP
0 0 0 0 0 0 0 0 0 0 0 0 0 0 0 0 0 0 0 0 0 0 0 0 0 0 0 0 0 0 0 0 0 1 1 1 1 0 0 0 0 0 0
0 0 0 0 0 0 0 0 0 0 0 0 0 0 0 0 0 0 0 0 0 0 0 0 0 0 0 0 0 0 0 0 0 1 1 1 1 1 0 0 0 0 0
0 0 0 0 0 0 0 0 0 0 0 0 0 0 0 0 0 0 0 0 0 0 0 0 0 0 0 0 0 0 0 0 0 1 1 1 1 1 1 0 0 0 0
0 0 0 0 0 0 0 0 0 0 0 0 0 0 0 0 0 0 0 0 0 0 0 0 0 0 0 0 0 0 0 0 0 1 1 1 1 1 1 1 0 0 0
0 0 0 0 0 0 0 0 0 0 0 0 0 0 0 0 0 0 0 0 0 0 0 0 0 0 0 0 0 0 0 0 0 1 1 1 1 1 1 1 0 0 0
0 0 0 0 0 0 0 0 0 0 0 0 0 0 0 0 0 0 0 0 0 0 0 0 0 0 0 0 0 0 0 0 0 1 1 1 1 1 1 1 1 0 0
0 0 0 0 0 0 0 0 0 0 0 0 0 0 0 0 0 0 0 0 0 0 0 0 0 0 0 0 0 0 0 0 0 1 1 1 1 1 1 1 1 1 0
0 0 0 0 0 0 0 0 0 0 0 0 0 0 0 0 0 0 0 0 0 0 0 0 0 0 0 0 0 0 0 0 0 1 1 1 1 1 1 1 1 1 1
0 0 0 0 0 0 0 0 0 0 0 0 0 0 0 0 0 0 0 0 0 0 0 0 0 0 0 0 0 0 0 0 0 1 1 1 1 1 1 1 1 1 1
0 0 0 0 0 0 0 0 0 0 0 0 0 0 0 0 0 0 0 0 0 0 0 0 0 0 0 0 0 0 0 0 0 1 1 1 1 1 1 1 1 1 1
0 0 0 0 0 0 0 0 0 0 0 0 0 0 0 0 0 0 0 0 0 0 0 0 0 0 0 0 0 0 0 0 0 0 1 1 1 1 1 1 1 1 1
0 0 0 0 0 0 0 0 0 0 0 0 0 0 0 0 0 0 0 0 0 0 0 0 0 0 0 0 0 0 0 0 0 0 0 0 1 1 1 1 1 1 1
0 0 0 0 0 0 0 0 0 0 0 0 0 0 0 0 0 0 0 0 0 0 0 0 0 0 0 0 0 0 0 0 0 0 0 0 0 0 0 1 1 1 1
0 0 0 0 0 0 0 0 0 0 0 0 0 0 0 0 0 0 0 0 0 0 0 0 0 0 0 0 0 0 0 0 0 0 0 0 0 0 0 0 0 0 0
0 0 0 0 0 0 0 0 0 0 0 0 0 0 0 0 0 0 0 0 0 0 0 0 0 0 0 0 0 0 0 0 0 0 0 0 0 0 0 0 0 0 0
0 0 0 0 0 0 0 0 0 0 0 0 0 0 0 0 0 0 0 0 0 0 0 0 0 0 0 0 0 0 0 0 0 0 0 0 0 0 0 0 0 0 0
0 0 0 0 0 0 0 0 0 0 0 0 0 0 0 0 0 0 0 0 0 0 0 0 0 0 0 0 0 0 0 0 0 0 0 0 0 0 0 0 0 0 0
0 0 0 0 0 0 0 0 0 0 0 0 0 0 0 0 0 0 0 0 0 0 0 0 0 0 0 0 0 0 0 0 0 0 0 0 0 0 0 0 0 0 0
0 0 0 0 0 0 0 0 0 0 0 0 0 0 0 0 0 0 0 0 0 0 0 0 0 0 0 0 0 0 0 0 0 0 0 0 0 0 0 0 0 0 0
0 0 0 0 0 0 0 0 0 0 0 0 0 0 0 0 0 0 0 0 0 0 0 0 0 0 0 0 0 0 0 0 0 0 0 0 0 0 0 0 0 0 0
0 0 0 0 0 0 0 0 0 0 0 0 0 0 0 0 0 0 0 0 0 0 0 0 0 0 0 0 0 0 0 0 0 0 0 0 0 0 0 0 0 0 0
0 0 0 0 0 0 0 0 0 0 0 0 0 0 0 0 0 0 0 0 0 0 0 0 0 0 0 0 0 0 0 0 0 0 0 0 0 0 0 0 0 0 0
0 0 0 0 0 0 0 0 0 0 0 0 0 0 0 0 0 0 0 0 0 0 0 0 0 0 0 0 0 0 0 0 0 0 0 0 0 0 0 0 0 0 0
0 0 0 0 0 0 0 0 0 0 0 0 0 0 0 0 0 0 0 0 0 0 0 0 0 0 0 0 0 0 0 0 0 0 0 0 0 0 0 0 0 0 0
0 0 0 0 0 0 0 0 0 0 0 0 0 0 0 0 0 0 0 0 0 0 0 0 0 0 0 0 0 0 0 0 0 0 0 0 0 0 0 0 0 0 0
0 0 0 0 0 0 0 0 0 0 0 0 0 0 0 0 0 0 0 0 0 0 0 0 0 0 0 0 0 0 0 0 0 0 0 0 0 0 0 0 0 0 0
Wind_Speed
3 2 1 1 1 1 2 2 3 4 4 5 5 6 6 7 7 6 6 17 21 23 24 26 27 28 29 30 30 31 32 32 31 31 31 30 30 29 28 28 27 26 25
3 3 1 0 1 1 1 2 3 3 4 4 5 6 7 7 6 7 6 10 18 22 23 25 27 28 30 30 31 32 32 33 32 32 32 31 31 30 29 28 28 27 26
4 3 2 2 2 2 2 2 3 3 4 4 5 7 6 6 6 7 7 6 7 16 22 25 27 28 29 31 32 33 33 33 33 33 33 33 32 31 30 29 28 27 26
5 4 3 3 3 2 2 3 3 3 4 4 5 5 5 6 7 7 7 6 6 7 13 23 26 27 29 31 32 33 33 34 34 34 33 34 33 32 30 29 28 28 26
6 5 4 4 3 3 3 4 2 3 4 5 5 6 5 6 7 8 7 8 7 8 7 16 24 27 28 30 31 32 33 34 34 34 34 34 34 33 31 29 28 28 27
7 5 4 5 4 3 3 3 4 4 4 5 7 7 6 7 6 6 7 7 7 9 9 10 11 15 26 29 30 32 33 34 34 35 34 34 33 32 31 29 28 28 27
7 6 4 5 4 4 5 4 3 4 3 2 3 5 6 6 7 5 5 6 8 9 9 10 9 8 10 24 28 31 32 34 34 35 35 34 33 32 31 29 28 28 28
7 7 6 5 5 4 5 5 4 2 3 2 2 4 5 4 3 6 5 6 7 7 9 12 10 11 10 8 17 30 32 33 34 35 34 34 33 32 30 28 28 28 27
8 7 7 6 6 5 5 5 5 5 4 3 3 2 3 5 7 4 5 6 6 7 8 8 11 11 12 10 11 20 30 33 34 34 34 33 32 31 29 28 27 26 26
8 8 7 7 6 5 6 6 6 5 4 4 3 4 5 5 5 8 6 5 7 8 8 10 11 11 12 10 14 24 31 32 33 32 31 31 30 29 28 26 26 25 24
7 8 8 7 7 6 6 7 5 6 5 5 4 4 5 5 7 7 12 11 9 7 7 8 9 10 12 11 10 18 30 31 31 30 29 28 28 28 26 25 25 24 23
6 8 8 7 7 6 7 7 7 7 6 7 6 5 5 5 5 6 9 12 13 11 8 8 9 10 10 9 14 26 29 30 29 28 26 26 25 25 25 25 24 22 21
7 9 9 8 7 8 8 7 7 7 7 8 7 7 7 8 7 7 9 12 14 13 9 8 7 8 10 8 10 25 26 29 29 28 26 24 24 24 23 23 23 22 20
9 9 10 9 9 8 8 7 6 7 7 8 9 8 7 8 7 8 8 10 14 14 12 9 6 7 7 8 14 25 16 27 29 28 26 24 23 23 22 22 21 21 20
8 9 9 9 9 9 9 7 7 8 7 8 9 9 8 8 8 8 8 9 10 14 16 11 6 6 7 7 16 12 11 22 28 27 26 25 24 23 22 21 20 20 20
10 9 10 10 9 9 9 8 7 8 8 9 8 9 9 8 8 8 9 9 10 12 14 11 9 9 10 11 18 13 12 26 26 26 25 25 23 23 22 21 20 20 20
12 11 11 10 10 10 9 8 9 8 9 10 9 9 11 10 9 9 9 9 10 10 14 14 10 9 10 11 12 10 11 11 12 23 25 25 24 23 23 22 21 21 20
12 12 11 10 10 10 9 9 10 10 10 11 11 10 12 10 11 10 9 11 10 10 12 16 12 10 10 10 10 11 11 11 10 20 24 24 23 22 21 21 21 21 20
12 12 11 11 11 10 9 10 10 10 10 11 11 11 12 11 12 11 11 11 10 11 10 12 13 10 8 8 9 10 11 9 11 15 20 20 19 21 21 21 21 21 20
13 13 12 11 11 10 10 9 10 10 10 11 12 12 12 12 13 13 12 12 11 11 10 11 11 10 9 7 6 8 10 8 9 11 13 14 18 20 20 21 21 20 19
14 13 12 11 10 9 9 10 10 11 11 12 12 12 12 16 19 16 12 10 9 9 9 9 9 9 8 7 7 7 10 10 9 8 7 9 9 8 10 14 18 19 19
13 12 12 11 11 10 15 19 14 10 11 11 11 10 10 13 17 22 24 23 18 12 9 8 8 9 9 8 8 9 9 10 9 4 6 10 7 9 8 7 14 18 19
13 13 12 11 11 13 18 19 20 11 9 9 9 8 8 10 15 9 16 21 19 20 20 11 9 9 10 9 9 11 10 10 11 7 8 11 7 9 8 10 18 19 19
13 12 12 12 11 13 18 19 19 12 7 7 8 8 9 9 11 13 11 10 9 10 13 9 8 10 10 10 9 9 10 10 9 7 6 8 6 7 9 8 16 18 18
13 12 10 11 11 12 17 18 17 6 6 8 8 8 9 9 17 22 12 8 8 9 13 16 17 15 19 18 14 7 7 8 9 6 4 5 5 6 7 7 8 13 14
12 11 10 11 11 11 15 17 17 6 7 7 6 7 13 13 18 19 8 6 8 9 6 7 9 12 10 11 15 6 4 6 7 6 3 3 4 5 7 5 4 5 7
Wind_Direction
152 142 113 50 16 8 358 336 327 318 313 304 298 304 299 296 293 293 305 318 325 325 323 321 319 318 316 313 311 309 306 303 299 296 293 291 288 285 283 282 280 279 278
165 163 164 183 281 283 280 286 286 288 287 285 285 289 286 283 284 288 290 307 316 321 321 319 318 316 313 311 309 307 304 301 298 295 291 290 288 284 281 278 277 276 275
174 172 181 211 233 243 262 270 277 268 276 284 285 284 280 275 283 287 290 285 296 311 316 317 315 313 312 310 308 305 302 298 296 293 290 287 285 282 279 276 274 274 273
181 179 191 216 224 226 241 258 255 268 275 280 279 279 280 279 282 284 283 284 286 293 305 310 311 311 311 309 306 303 300 297 294 291 288 284 282 280 276 274 271 271 271
187 184 199 216 218 223 235 258 258 249 269 280 281 274 269 275 279 284 285 285 283 286 286 301 306 309 309 307 304 302 299 296 292 288 285 282 279 278 274 272 269 268 268
191 188 202 216 212 219 235 240 259 256 251 266 287 287 273 270 267 266 274 285 286 289 291 290 293 298 302 304 303 301 297 294 291 287 284 281 277 276 272 271 268 266 267
193 191 205 208 208 214 228 234 247 270 268 260 282 287 272 257 253 259 262 274 283 286 286 289 285 281 290 297 301 299 296 294 290 286 283 280 276 274 271 269 267 265 265
194 199 200 206 209 214 228 232 222 249 263 276 280 308 314 299 250 270 262 274 282 285 290 294 287 285 283 283 287 294 295 292 289 286 281 279 274 271 270 268 267 264 264
196 201 200 202 207 206 219 226 218 222 247 258 212 235 290 298 311 271 264 278 279 285 286 288 287 285 287 286 287 292 291 290 287 283 280 278 276 271 269 269 268 265 263
197 200 203 203 208 209 217 227 224 213 222 250 239 221 221 240 287 303 293 277 279 286 284 292 293 289 286 283 284 291 293 292 289 284 281 278 276 274 270 269 270 268 266
202 203 204 204 209 212 217 223 229 224 218 231 233 231 239 243 235 263 293 301 296 280 276 280 284 284 284 281 280 287 293 294 292 289 284 282 279 278 277 276 274 272 269
206 208 209 207 210 213 218 223 225 228 230 233 238 233 233 241 246 249 273 292 297 296 285 281 280 281 281 281 285 296 299 302 301 298 293 289 287 284 284 283 280 278 275
205 210 209 208 211 216 221 222 224 231 231 234 237 239 239 243 249 255 268 283 289 292 286 277 268 276 284 285 290 298 301 305 306 305 302 298 293 291 288 288 287 285 285
205 200 203 209 213 217 224 221 227 233 233 236 244 242 246 249 247 248 256 275 288 292 290 281 273 267 279 284 288 300 301 305 306 305 304 302 298 293 290 288 287 289 291
200 200 203 209 215 219 223 222 231 235 236 240 246 247 248 253 250 249 251 254 268 289 294 295 289 272 280 285 292 296 295 299 302 304 303 302 299 294 292 291 288 287 288
200 196 203 210 216 220 223 224 233 237 239 245 246 248 251 254 254 253 253 253 252 264 280 287 286 286 288 293 297 302 299 301 305 304 302 299 296 294 292 291 289 287 286
199 203 207 210 217 222 223 226 234 236 242 250 251 251 255 255 258 258 257 256 255 256 271 282 282 284 282 285 291 291 291 290 292 300 301 299 295 292 290 288 286 285 283
200 203 205 211 218 223 223 226 237 242 242 250 253 254 259 260 259 260 260 260 259 257 263 278 285 285 281 282 283 288 294 295 293 297 299 298 295 291 288 286 285 282 280
200 202 203 212 219 222 225 229 234 241 244 248 251 253 258 259 263 262 261 262 262 262 259 269 280 282 282 282 287 289 289 287 291 295 299 298 297 295 293 287 283 279 276
199 201 205 212 218 222 226 231 235 242 246 249 250 251 254 255 260 264 264 261 261 263 262 265 273 281 284 281 281 293 298 294 295 297 294 297 298 298 293 288 282 279 274
200 200 203 210 216 221 226 229 236 241 246 250 252 252 253 259 263 270 273 268 262 263 269 271 278 286 289 295 292 292 295 298 292 281 289 291 293 288 287 286 283 277 272
198 196 202 208 215 223 239 245 245 237 241 246 253 254 257 268 276 283 290 293 291 284 278 274 280 283 286 285 286 287 291 295 297 283 296 295 288 284 280 270 272 272 268
195 198 203 207 218 230 241 251 257 256 244 244 247 255 265 267 281 280 285 290 292 291 291 287 282 277 279 277 277 281 281 281 282 289 295 290 280 281 278 276 278 273 266
196 199 203 207 217 231 241 250 258 259 250 245 243 247 257 264 270 277 271 270 263 270 276 279 262 264 268 268 261 269 279 284 279 275 273 280 284 282 286 278 277 271 263
196 199 200 204 214 231 240 248 256 248 250 251 250 252 257 257 274 287 287 275 275 275 286 287 288 292 297 303 302 300 298 296 295 290 262 267 290 299 286 273 276 279 272
197 194 201 204 212 222 234 243 251 243 250 254 253 253 269 275 283 292 287 274 280 281 275 284 294 298 299 298 302 297 278 281 286 290 268 281 290 313 306 292 286 291 284